Theta_e
312 313 319 318 319 319 318 319 320 320 321 321 320 321 322 322 323 323 324 325 326 325 325 324 322 323 324 325 325 325 321 317 317 322 326 327 326 327 327 328 328 328 327 326
312 313 316 320 319 319 318 317 319 320 321 320 320 321 321 321 322 324 325 326 324 324 325 326 323 324 324 325 325 323 318 318 321 324 323 323 327 327 327 327 328 327 327 326
312 314 315 319 319 319 318 317 318 319 320 322 321 323 322 322 322 324 326 326 326 326 326 325 323 324 325 325 325 322 318 319 324 325 324 325 325 325 327 327 328 326 326 325
310 312 315 316 318 315 316 317 318 319 320 320 321 323 322 321 322 321 323 324 325 325 325 326 324 325 326 325 324 321 320 320 326 326 326 326 325 324 325 326 326 326 326 324
312 312 313 315 316 316 317 318 320 321 321 322 323 322 322 320 323 321 320 324 324 325 326 326 325 326 326 325 324 320 323 322 325 328 328 326 324 324 325 326 326 327 327 325
312 314 313 314 317 317 316 318 318 319 319 322 322 322 322 321 322 323 322 323 325 325 326 326 326 326 326 326 323 323 323 322 327 328 328 326 325 326 324 327 327 327 327 325
313 313 313 314 313 314 314 313 315 318 319 323 321 322 323 321 321 322 322 323 325 325 326 326 326 326 326 325 324 324 322 324 328 328 328 326 326 326 325 325 327 327 327 326
314 314 314 314 313 313 314 315 318 321 323 323 321 324 324 322 322 323 324 323 325 324 325 325 326 326 327 325 324 323 324 325 326 328 327 326 328 326 325 325 327 327 326 326
314 314 316 315 315 314 313 315 316 318 321 321 321 322 322 323 323 322 324 324 325 325 325 326 326 327 327 325 324 322 326 327 326 328 325 328 327 327 325 324 326 326 326 326
314 313 315 315 315 314 312 313 315 315 322 324 323 323 324 324 324 325 324 323 325 326 326 326 326 327 327 325 323 323 327 326 327 326 326 328 328 327 325 325 327 326 326 326
314 314 317 315 315 315 313 314 314 314 317 321 323 323 319 321 323 325 323 324 325 326 326 326 327 328 327 324 323 324 328 326 326 325 326 327 327 327 325 326 326 325 326 326
312 312 315 315 315 316 315 314 314 319 319 319 320 322 321 319 320 323 323 325 326 326 327 327 327 328 326 324 323 324 326 326 325 324 325 327 327 327 326 326 326 325 326 326
312 315 316 314 317 316 315 315 315 314 317 320 323 323 319 321 320 324 323 325 326 326 327 327 328 327 326 324 323 324 326 325 324 322 323 325 325 327 326 326 326 325 326 325
310 314 317 316 317 317 316 316 315 315 317 319 321 322 324 325 325 325 325 325 326 327 327 328 328 327 326 324 323 324 325 325 324 321 323 324 324 325 326 326 327 326 327 325
308 311 316 318 316 316 319 316 316 318 318 320 321 321 322 323 324 325 326 326 326 326 327 328 328 327 325 324 323 324 324 325 323 321 322 322 324 327 327 326 328 328 328 326
307 309 314 319 318 316 316 318 317 318 319 320 320 320 319 321 326 326 326 325 325 326 327 328 328 327 325 324 323 324 324 325 323 321 321 321 324 327 327 323 327 328 328 328
309 310 309 317 318 316 316 316 317 318 320 321 322 320 319 322 327 326 326 326 326 327 327 328 327 327 326 325 322 323 324 324 324 321 320 318 324 323 325 323 325 326 328 328
309 309 310 312 317 316 317 316 316 318 320 320 320 319 321 321 327 328 330 329 327 327 328 328 327 327 326 325 322 322 324 324 325 321 320 318 325 324 321 322 323 322 321 328
308 308 310 316 317 316 318 320 316 317 319 320 321 319 320 323 325 327 329 329 330 329 328 327 327 327 326 326 323 322 324 324 325 321 319 318 321 325 322 321 322 321 321 328
312 308 310 317 318 317 319 319 319 319 321 319 319 318 319 321 324 322 329 329 329 329 328 327 327 327 326 326 323 322 324 324 324 321 319 318 318 325 325 322 321 320 321 328
311 311 312 314 317 321 318 317 321 322 322 323 320 319 317 322 325 327 326 329 330 330 329 328 328 327 327 326 323 322 323 323 324 323 320 319 317 319 324 324 322 321 318 322
314 317 314 315 321 323 317 318 321 318 318 324 324 320 321 325 325 325 327 327 328 329 328 328 328 327 327 326 324 322 322 321 323 323 320 319 318 316 322 324 323 322 319 318
313 312 315 317 323 314 314 313 313 314 314 320 324 327 320 323 324 324 325 327 328 329 330 329 328 327 327 326 325 323 322 322 323 323 320 320 319 316 317 320 321 321 320 317
311 311 314 314 319 316 313 313 312 314 313 314 324 328 325 322 325 325 325 327 328 329 329 329 328 327 327 327 326 325 323 322 322 323 321 320 320 318 318 319 319 320 318 317
309 311 312 313 314 314 314 313 312 313 314 316 321 328 325 324 323 325 325 326 329 329 329 329 329 329 328 327 326 325 323 322 322 322 322 319 321 320 319 318 317 318 317 312
311 311 313 314 314 312 312 312 312 311 313 319 323 328 325 324 324 325 326 326 328 329 329 329 329 329 328 327 327 326 324 323 322 322 323 320 320 321 319 319 319 318 317 317
Wind_Speed
16 8 19 18 21 17 8 8 9 8 4 7 8 9 15 18 15 21 30 32 31 37 30 26 36 36 38 32 25 16 11 8 5 3 3 6 9 12 12 12 13 12 12 9
7 30 19 16 16 16 9 9 17 18 8 7 9 14 15 12 13 19 26 32 26 22 18 19 29 37 38 32 21 14 11 8 5 2 3 8 11 14 13 11 9 10 12 7
28 20 16 20 16 18 18 17 15 19 2 6 8 14 12 15 8 21 21 19 18 23 24 25 35 40 35 27 18 12 10 6 4 1 4 7 11 11 9 6 5 8 7 4
18 21 22 17 24 17 19 16 21 18 5 6 4 5 5 8 10 7 18 14 18 20 20 26 39 37 32 22 14 12 9 5 5 0 4 8 10 11 9 6 5 7 5 2
12 18 24 21 21 22 18 11 9 10 6 4 9 3 7 4 8 11 11 14 13 14 21 31 40 35 25 17 13 11 8 6 6 1 5 7 8 10 10 8 6 5 3 4
10 15 25 25 14 19 7 4 2 4 4 12 19 7 5 7 8 7 4 5 10 20 26 32 35 29 21 16 14 11 7 7 6 2 5 5 8 10 11 10 8 7 3 6
6 12 3 7 15 6 7 7 2 3 5 7 7 6 15 7 9 9 9 10 17 22 28 34 35 30 23 19 16 11 8 8 6 2 5 5 7 8 10 12 8 3 1 7
14 11 22 12 9 12 14 14 6 6 4 4 7 7 7 8 11 19 24 14 24 26 28 35 35 28 23 19 17 10 9 7 5 2 4 4 5 7 9 11 8 5 4 6
12 14 2 16 6 14 9 16 12 2 2 2 4 7 9 2 5 6 10 21 26 29 31 35 33 27 22 20 17 10 10 7 4 2 2 2 4 8 9 9 6 4 4 6
3 5 8 19 19 18 10 10 8 5 5 4 4 4 6 4 5 3 7 12 23 27 31 33 33 27 20 18 14 11 9 6 4 2 1 1 4 7 8 8 5 5 4 4
4 1 3 6 16 21 8 8 5 7 6 5 2 6 7 9 9 11 9 20 29 32 32 36 33 26 19 20 16 13 13 10 6 2 2 0 3 5 7 9 4 3 5 5
5 5 5 13 2 20 13 12 10 9 6 6 3 7 5 9 10 13 13 26 30 31 32 36 31 27 24 23 19 15 15 12 7 2 3 2 2 4 5 9 4 6 6 8
8 5 5 6 2 4 23 19 17 4 3 7 9 8 3 4 6 12 17 27 30 29 32 34 32 29 27 25 21 16 16 12 8 3 2 3 2 3 5 8 9 9 8 10
9 4 10 12 3 5 6 21 11 16 12 10 9 3 3 5 9 6 13 24 31 32 35 35 33 31 28 26 23 17 16 13 10 4 3 3 1 5 6 10 9 10 9 10
3 4 6 16 21 10 3 11 21 19 14 15 12 9 9 10 10 15 27 26 28 31 35 36 35 33 30 29 25 20 16 16 13 7 5 5 7 9 9 8 10 11 9 10
4 4 7 7 14 21 16 4 22 21 16 11 8 8 8 9 11 12 24 28 29 34 38 37 35 33 32 30 26 22 17 18 16 10 7 8 9 10 9 8 9 9 9 10
6 3 10 6 8 11 15 27 9 15 17 18 10 9 8 5 13 16 23 30 35 38 40 39 37 35 33 32 27 25 19 18 18 14 10 8 12 10 9 9 11 11 9 8
7 2 2 5 3 7 16 13 16 10 12 11 4 10 13 14 29 35 41 44 36 38 39 39 37 36 33 31 28 25 23 19 20 17 13 9 15 13 11 10 9 9 8 9
18 5 2 3 4 6 5 3 13 9 11 10 12 8 12 19 19 8 36 43 44 41 37 37 34 32 33 32 29 28 27 22 23 21 17 12 16 16 12 11 10 8 10 12
15 12 6 2 4 6 5 13 1 6 13 8 9 10 9 14 10 6 35 42 42 40 37 35 35 35 34 33 32 30 30 27 26 24 18 14 16 17 14 11 11 9 11 14
4 3 9 5 4 6 17 21 15 13 3 15 11 17 11 11 16 36 32 42 45 41 38 35 35 37 35 35 35 33 31 30 24 23 19 16 16 19 17 16 12 11 13 15
2 3 4 4 4 5 24 8 6 9 22 20 22 19 30 36 30 29 32 37 40 42 40 37 36 38 37 36 36 36 33 25 25 25 21 19 16 21 20 19 16 13 13 16
2 1 3 4 2 3 12 7 18 21 21 19 24 20 19 35 33 32 33 36 39 44 45 40 38 39 39 39 38 36 33 29 28 27 23 22 20 19 20 21 20 17 16 17
3 4 3 6 3 9 22 20 27 25 25 27 23 16 12 28 34 31 31 37 40 43 48 43 39 39 41 41 40 34 34 30 30 28 24 25 25 22 21 21 21 21 20 21
3 3 2 5 11 16 3 28 33 37 34 33 26 17 7 20 27 35 35 39 41 43 47 45 41 39 40 42 41 39 35 33 32 29 26 26 28 26 23 21 20 21 20 20
4 4 1 3 9 9 16 31 37 36 38 36 30 19 13 10 23 29 35 36 42 43 46 48 44 39 38 41 41 40 36 35 34 33 31 28 29 30 28 25 24 22 18 18
Wind_Direction
177 196 210 192 207 216 222 223 248 276 243 250 245 262 275 280 294 272 272 271 263 237 242 238 232 223 197 196 193 197 208 208 202 227 281 317 319 319 311 296 294 299 313 299
170 226 201 206 207 217 223 242 258 280 274 228 271 262 268 283 277 265 264 268 252 253 258 228 212 195 192 189 189 192 201 197 186 203 323 333 334 326 313 293 286 296 305 278
202 229 204 203 206 212 223 228 246 246 353 292 302 287 280 283 291 277 264 258 261 255 244 203 190 185 184 183 184 197 193 182 169 169 356 347 346 344 337 329 301 307 313 274
229 227 191 203 215 198 222 216 239 256 277 255 131 287 301 287 300 292 272 250 244 239 220 195 184 179 182 177 180 187 184 173 179 84 358 352 359 360 356 341 313 316 315 253
210 186 212 214 210 200 224 212 225 245 250 292 256 274 269 242 281 271 263 280 269 214 196 185 180 181 172 175 181 180 175 170 195 174 357 1 7 9 360 349 329 312 290 219
216 206 201 217 200 202 169 153 260 272 268 261 264 189 213 232 223 252 241 279 184 180 183 182 177 172 170 174 177 174 174 180 190 179 357 3 2 3 1 357 340 321 231 194
178 225 211 170 205 163 172 108 268 281 215 226 239 191 246 248 236 230 246 198 176 179 179 179 175 173 174 176 174 170 174 187 187 202 349 345 354 354 359 0 2 6 160 187
201 211 211 173 182 187 199 179 166 205 197 189 170 234 243 224 267 244 254 207 176 178 181 180 176 175 179 179 175 168 169 175 189 187 346 354 352 6 0 4 15 37 118 166
198 231 175 186 168 162 193 207 184 10 312 72 220 285 329 314 244 200 154 161 177 185 183 181 178 181 180 181 177 172 168 169 165 141 27 31 25 11 12 14 31 48 115 126
268 207 214 206 193 198 168 151 177 201 211 207 266 255 216 224 261 148 148 165 177 183 180 179 182 182 181 181 175 175 174 183 165 164 123 40 24 13 26 23 29 66 121 141
203 151 278 160 204 188 175 197 162 156 216 170 185 256 219 206 191 190 195 182 181 184 183 183 184 181 180 180 180 180 187 195 185 204 213 228 19 20 33 27 48 57 82 123
288 227 216 225 246 194 199 196 205 185 203 227 162 259 227 213 202 182 184 187 189 188 185 185 183 181 183 185 184 187 189 190 186 213 212 192 34 38 38 27 90 80 86 118
331 281 259 338 346 181 198 202 206 171 96 193 189 251 175 170 165 201 162 186 190 187 186 185 183 185 188 189 189 189 188 184 191 175 161 182 67 70 56 42 113 104 98 111
338 282 247 217 224 145 186 199 172 189 218 219 222 185 194 185 156 165 180 187 189 189 187 183 186 189 192 193 192 189 187 187 194 168 161 172 130 120 90 74 117 121 111 112
36 276 308 275 258 278 202 191 198 205 200 199 221 193 209 194 185 183 193 184 182 186 188 188 189 192 194 195 194 190 188 188 198 186 167 157 136 127 108 91 94 123 110 126
3 281 324 267 244 241 248 247 202 213 213 225 175 218 206 201 165 138 182 176 181 189 191 192 193 195 196 195 194 191 189 188 199 194 169 161 151 135 122 105 102 97 119 121
297 333 351 280 244 242 257 241 222 211 203 203 183 215 157 145 169 178 182 186 189 193 193 194 197 199 199 197 193 190 186 186 198 194 179 165 167 151 142 126 109 106 104 123
240 115 237 278 273 191 246 224 219 210 215 212 147 178 175 174 192 194 198 196 194 195 198 198 199 201 201 199 193 190 189 187 198 195 188 175 174 168 155 147 129 112 104 120
219 166 258 253 261 279 245 230 192 170 247 212 206 201 193 181 167 202 206 207 206 200 204 201 200 199 203 200 195 191 192 194 198 196 192 183 181 176 171 162 145 125 121 127
223 193 190 215 252 220 33 330 239 120 236 211 182 192 153 140 166 231 209 212 211 206 205 202 201 203 205 201 197 193 196 198 200 199 193 184 185 184 184 182 159 135 136 134
115 118 219 263 289 288 345 317 309 177 248 318 267 187 159 175 189 200 209 211 215 208 207 208 204 205 204 202 199 197 198 202 200 199 192 184 187 187 189 186 176 159 152 149
28 325 184 196 240 266 353 16 46 310 316 314 323 236 188 200 195 203 198 200 209 207 205 209 207 207 205 202 201 202 202 200 199 198 193 188 185 187 189 189 185 183 173 169
223 170 316 279 310 8 343 343 329 335 320 317 319 312 238 209 203 204 201 204 205 204 203 210 210 208 207 204 203 205 205 199 197 198 195 191 191 186 189 193 191 191 190 183
212 246 228 314 29 310 316 325 340 333 333 329 332 329 259 227 217 201 197 198 201 203 205 206 208 210 208 206 205 209 206 198 196 197 197 193 200 193 191 194 201 200 197 195
215 231 284 271 287 315 71 326 330 331 335 351 359 360 330 222 230 215 204 200 203 205 205 208 209 211 211 207 207 208 209 202 198 198 198 197 204 204 200 201 203 210 216 211
192 207 178 261 310 286 281 308 319 331 337 359 359 8 44 194 218 211 200 202 202 204 205 207 209 211 211 208 209 210 208 206 202 200 202 202 206 210 211 211 211 214 217 220